This is the latest recevied weather packets stored in our database for station/object KI4NG. If no packets are shown the sender has not sent any weather packets the latest 10 day(s).
| Time | Temp. | Humidity | Pressure | Rain* | Wind** | Luminosity | Snow |
|---|---|---|---|---|---|---|---|
| 1788539015 | 33.33° C | 63% | 1020.3 hPa | 0 mm | - | 762 W/m² | - |
| 1788538710 | 32.78° C | 65% | 1020.2 hPa | 0 mm | - | 724 W/m² | - |
| 1788538405 | 32.78° C | 65% | 1020.4 hPa | 0 mm | - | 732 W/m² | - |
| 1788538101 | 32.22° C | 64% | 1020.4 hPa | 0 mm | - | 753 W/m² | - |
| 1788537801 | 32.22° C | 63% | 1020.3 hPa | 0 mm | - | 775 W/m² | - |
| 1788537496 | 32.22° C | 64% | 1020.4 hPa | 0 mm | - | 760 W/m² | - |
| 1788537190 | 32.22° C | 66% | 1020.6 hPa | 0 mm | - | 752 W/m² | - |
| 1788536889 | 32.78° C | 66% | 1020.3 hPa | 0 mm | - | 717 W/m² | - |
| 1788536584 | 32.22° C | 66% | 1020.7 hPa | 0 mm | - | 603 W/m² | - |
| 1788536279 | 31.67° C | 68% | 1020.6 hPa | 0 mm | - | 644 W/m² | - |
| 1788535975 | 31.67° C | 67% | 1020.6 hPa | 0 mm | - | 671 W/m² | - |
| 1788535671 | 31.11° C | 69% | 1020.6 hPa | 0 mm | - | 651 W/m² | - |
| 1788535366 | 31.11° C | 69% | 1020.4 hPa | 0 mm | - | 684 W/m² | - |
| 1788535061 | 31.11° C | 70% | 1020.3 hPa | 0 mm | - | 658 W/m² | - |
| 1788534760 | 30.56° C | 70% | 1020.3 hPa | 0 mm | - | 648 W/m² | - |
| 1788534456 | 30.56° C | 70% | 1020.6 hPa | 0 mm | - | 631 W/m² | - |
| 1788534151 | 30.56° C | 71% | 1020.3 hPa | 0 mm | - | 619 W/m² | - |
| 1788533849 | 30.56° C | 71% | 1020.3 hPa | 0 mm | - | 619 W/m² | - |
| 1788533545 | 30.56° C | 73% | 1020.7 hPa | 0 mm | - | 589 W/m² | - |
| 1788533240 | 30° C | 73% | 1020.3 hPa | 0 mm | - | 582 W/m² | - |
| 1788532936 | 30° C | 74% | 1020.3 hPa | 0 mm | - | 575 W/m² | - |
| 1788532631 | 29.44° C | 74% | 1020.6 hPa | 0 mm | - | 548 W/m² | - |
| 1788532328 | 29.44° C | 74% | 1020.2 hPa | 0 mm | - | 537 W/m² | - |
| 1788532024 | 29.44° C | 74% | 1020.6 hPa | 0 mm | - | 530 W/m² | - |
| 1788531720 | 29.44° C | 75% | 1020.2 hPa | 0 mm | - | 499 W/m² | - |
* Rain latest hour (hover to see other rain measurements)
** Current wind speed in m/s (hover to see current wind gust speed)